Weather History for KCLK - September, 2013

Change the Weather History Date:

Monday, September 30, 2013

  Actual Average (KCSM) Record (KCSM)
Temperature  
Mean Temperature 66 °F -  
Max Temperature 82 °F 77 °F 98 °F (1998)
Min Temperature 51 °F 54 °F 46 °F (1999)
Cooling Degree Days 2    
Growing Degree Days 16 (Base 50)    
Moisture  
Dew Point 46 °F    
Average Humidity 51    
Maximum Humidity 77    
Minimum Humidity 25    
Precipitation  
Precipitation 0.00 in - - ()
Sea Level Pressure  
Sea Level Pressure 29.87 in    
Wind  
Wind Speed 10 mph (SSE)    
Max Wind Speed 20 mph    
Max Gust Speed 23 mph    
Visibility 10 miles    
Events      
Averages and records for this station are not official NWS values.
T = Trace of Precipitation, MM = Missing Value Source: NWS Daily Summary

Daily Weather History Graph

Daily Weather History Graph

Search for Another Location

Airport or City:

Trip Planner

Search our weather history database for the weather conditions in past years. The results will help you decide how hot, cold, wet, or windy it might be!

Date:

Astronomy

Sep. 30, 2013 Rise Set
Actual Time 7:30 AM CDT 7:20 PM CDT
Civil Twilight 7:04 AM CDT 7:45 PM CDT
Nautical Twilight 6:35 AM CDT 8:15 PM CDT
Astronomical Twilight 6:05 AM CDT 8:45 PM CDT
Moon 3:16 AM CDT (9/30) 4:45 PM CDT (9/30)
Length of Visible Light 12h 41m
Length of Day
11h 50m
Waning Crescent, 19% of the Moon is Illuminated
Sep 30
Waning Crescent
Oct 4
New
Oct 11
First Quarter
Oct 18
Full
Oct 26
Last Quarter

Hourly Weather History & Observations

Time (CDT) Temp. Dew Point Humidity Pressure Visibility Wind Dir Wind Speed Gust Speed Precip Events Conditions
12:15 AM 57.2 °F 44.6 °F 63% 29.95 in 10.0 mi SSE 8.1 mph - N/A   Clear
12:35 AM 57.2 °F 44.6 °F 63% 29.94 in 10.0 mi SE 8.1 mph - N/A   Clear
12:55 AM 55.4 °F 44.6 °F 67% 29.94 in 10.0 mi SSE 6.9 mph - N/A   Clear
1:15 AM 53.6 °F 44.6 °F 72% 29.95 in 10.0 mi SSE 3.5 mph - N/A   Scattered Clouds
1:35 AM 55.4 °F 44.6 °F 67% 29.94 in 10.0 mi South 3.5 mph - N/A   Scattered Clouds
1:55 AM 53.6 °F 44.6 °F 72% 29.94 in 10.0 mi South 3.5 mph - N/A   Scattered Clouds
2:15 AM 53.6 °F 44.6 °F 72% 29.94 in 10.0 mi South 5.8 mph - N/A   Scattered Clouds
2:35 AM 53.6 °F 46.4 °F 77% 29.93 in 10.0 mi SSE 6.9 mph - N/A   Clear
2:55 AM 53.6 °F 46.4 °F 77% 29.93 in 10.0 mi SSE 6.9 mph - N/A   Scattered Clouds
3:15 AM 53.6 °F 44.6 °F 72% 29.92 in 10.0 mi SE 5.8 mph - N/A   Scattered Clouds
3:35 AM 53.6 °F 44.6 °F 72% 29.91 in 10.0 mi SSE 5.8 mph - N/A   Clear
3:55 AM 53.6 °F 44.6 °F 72% 29.91 in 10.0 mi SSE 5.8 mph - N/A   Clear
4:15 AM 53.6 °F 44.6 °F 72% 29.91 in 10.0 mi SSE 6.9 mph - N/A   Scattered Clouds
4:35 AM 53.6 °F 44.6 °F 72% 29.90 in 10.0 mi SSE 6.9 mph - N/A   Scattered Clouds
4:55 AM 53.6 °F 44.6 °F 72% 29.89 in 10.0 mi SSE 8.1 mph - N/A   Scattered Clouds
5:15 AM 53.6 °F 44.6 °F 72% 29.89 in 10.0 mi SSE 8.1 mph - N/A   Scattered Clouds
5:35 AM 51.8 °F 44.6 °F 76% 29.90 in 10.0 mi South 6.9 mph - N/A   Clear
5:55 AM 51.8 °F 44.6 °F 76% 29.89 in 10.0 mi South 6.9 mph - N/A   Scattered Clouds
6:15 AM 51.8 °F 44.6 °F 76% 29.90 in 10.0 mi SSE 6.9 mph - N/A   Scattered Clouds
6:35 AM 51.8 °F 44.6 °F 76% 29.89 in 10.0 mi SSE 8.1 mph - N/A   Scattered Clouds
6:55 AM 53.6 °F 44.6 °F 72% 29.90 in 10.0 mi SE 8.1 mph - N/A   Scattered Clouds
7:15 AM 53.6 °F 44.6 °F 72% 29.89 in 10.0 mi SE 8.1 mph - N/A   Scattered Clouds
7:35 AM 55.4 °F 44.6 °F 67% 29.90 in 10.0 mi SE 6.9 mph - N/A   Scattered Clouds
7:55 AM 55.4 °F 44.6 °F 67% 29.89 in 10.0 mi SE 9.2 mph - N/A   Clear
8:15 AM 55.4 °F 44.6 °F 67% 29.89 in 10.0 mi SE 9.2 mph - N/A   Clear
8:35 AM 55.4 °F 44.6 °F 67% 29.89 in 10.0 mi SE 11.5 mph - N/A   Clear
8:55 AM 59.0 °F 44.6 °F 59% 29.89 in 10.0 mi SSE 10.4 mph - N/A   Clear
9:15 AM 60.8 °F 44.6 °F 55% 29.88 in 10.0 mi SSE 12.7 mph - N/A   Clear
9:35 AM 60.8 °F 46.4 °F 59% 29.89 in 10.0 mi SSE 10.4 mph - N/A   Clear
9:55 AM 62.6 °F 46.4 °F 55% 29.89 in 10.0 mi SSE 10.4 mph - N/A   Clear
10:15 AM 64.4 °F 46.4 °F 52% 29.88 in 10.0 mi SSE 15.0 mph - N/A   Clear
10:35 AM 66.2 °F 46.4 °F 49% 29.88 in 10.0 mi SSE 16.1 mph - N/A   Clear
10:55 AM 68.0 °F 46.4 °F 46% 29.88 in 10.0 mi SSE 16.1 mph - N/A   Clear
11:15 AM 69.8 °F 46.4 °F 43% 29.88 in 10.0 mi South 19.6 mph - N/A   Clear
11:35 AM 69.8 °F 46.4 °F 43% 29.88 in 10.0 mi South 16.1 mph - N/A   Clear
11:55 AM 71.6 °F 46.4 °F 41% 29.88 in 10.0 mi South 17.3 mph 23.0 mph N/A   Clear
12:15 PM 73.4 °F 50.0 °F 44% 29.88 in 10.0 mi SSE 11.5 mph - N/A   Clear
12:35 PM 75.2 °F 46.4 °F 36% 29.86 in 10.0 mi South 15.0 mph - N/A   Clear
12:55 PM 77.0 °F 46.4 °F 34% 29.86 in 10.0 mi South 15.0 mph - N/A   Clear
1:15 PM 77.0 °F 44.6 °F 32% 29.86 in 10.0 mi SSE 16.1 mph - N/A   Clear
1:35 PM 78.8 °F 44.6 °F 30% 29.84 in 10.0 mi SSE 15.0 mph 19.6 mph N/A   Clear
1:55 PM 78.8 °F 46.4 °F 32% 29.83 in 10.0 mi SSE 15.0 mph - N/A   Clear
2:15 PM 80.6 °F 46.4 °F 30% 29.83 in 10.0 mi SE 15.0 mph 19.6 mph N/A   Clear
2:35 PM 80.6 °F 44.6 °F 28% 29.82 in 10.0 mi SSE 17.3 mph 20.7 mph N/A   Clear
2:55 PM 82.4 °F 44.6 °F 26% 29.81 in 10.0 mi SSE 13.8 mph 21.9 mph N/A   Clear
3:15 PM 82.4 °F 44.6 °F 26% 29.81 in 10.0 mi SSE 16.1 mph 19.6 mph N/A   Clear
3:35 PM 82.4 °F 44.6 °F 26% 29.81 in 10.0 mi SSE 18.4 mph 23.0 mph N/A   Clear
3:55 PM 82.4 °F 44.6 °F 26% 29.80 in 10.0 mi SSE 15.0 mph - N/A   Clear
4:15 PM 82.4 °F 44.6 °F 26% 29.81 in 10.0 mi SSE 15.0 mph - N/A   Clear
4:35 PM 82.4 °F 42.8 °F 25% 29.81 in 10.0 mi South 17.3 mph 21.9 mph N/A   Clear
4:55 PM 82.4 °F 42.8 °F 25% 29.81 in 10.0 mi South 16.1 mph - N/A   Clear
5:15 PM 82.4 °F 44.6 °F 26% 29.81 in 10.0 mi South 16.1 mph 20.7 mph N/A   Clear
5:35 PM 82.4 °F 44.6 °F 26% 29.81 in 10.0 mi South 16.1 mph 19.6 mph N/A   Clear
5:55 PM 82.4 °F 42.8 °F 25% 29.81 in 10.0 mi South 17.3 mph 21.9 mph N/A   Clear
6:15 PM 82.4 °F 44.6 °F 26% 29.81 in 10.0 mi SSE 13.8 mph - N/A   Clear
6:35 PM 80.6 °F 44.6 °F 28% 29.81 in 10.0 mi South 10.4 mph - N/A   Clear
6:55 PM 80.6 °F 46.4 °F 30% 29.81 in 10.0 mi SSE 10.4 mph - N/A   Clear
7:35 PM 75.2 °F 50.0 °F 41% 29.81 in 10.0 mi SSE 8.1 mph - N/A   Clear
7:55 PM 73.4 °F 48.2 °F 41% 29.81 in 10.0 mi SSE 9.2 mph - N/A   Clear
8:15 PM 71.6 °F 48.2 °F 43% 29.81 in 10.0 mi SE 8.1 mph - N/A   Clear
8:35 PM 71.6 °F 50.0 °F 46% 29.81 in 10.0 mi SE 8.1 mph - N/A   Clear
8:55 PM 69.8 °F 50.0 °F 49% 29.82 in 10.0 mi SE 8.1 mph - N/A   Clear
9:15 PM 69.8 °F 50.0 °F 49% 29.83 in 10.0 mi SE 10.4 mph - N/A   Scattered Clouds
9:35 PM 69.8 °F 48.2 °F 46% 29.83 in 10.0 mi SE 10.4 mph - N/A   Clear
9:55 PM 69.8 °F 48.2 °F 46% 29.83 in 10.0 mi SE 11.5 mph - N/A   Clear
10:15 PM 69.8 °F 46.4 °F 43% 29.84 in 10.0 mi SE 12.7 mph - N/A   Clear
10:35 PM 69.8 °F 48.2 °F 46% 29.84 in 10.0 mi SE 11.5 mph - N/A   Clear
10:55 PM 68.0 °F 48.2 °F 49% 29.84 in 10.0 mi SSE 11.5 mph - N/A   Scattered Clouds
11:15 PM 68.0 °F 48.2 °F 49% 29.84 in 10.0 mi SE 12.7 mph - N/A   Scattered Clouds
11:35 PM 68.0 °F 48.2 °F 49% 29.85 in 10.0 mi SE 12.7 mph - N/A   Scattered Clouds
11:55 PM 66.2 °F 50.0 °F 56% 29.84 in 10.0 mi SSE 12.7 mph - N/A   Scattered Clouds